Zurück zum Katalog

DELTA 1 DEB

AktivSSO
NORAD 7046·DEBRIS·🇺🇸 United States

Gestartet Nov 6, 1973 von Vandenberg Space Force Base

Loading…

Nächste Überflüge (nächste 24 Stunden)

TLE

AktuellSource: Space-Track

Epoche: Sep 14, 2026, 00:52 UTC

1 07046U 73086AN  26257.03621910 -.00000027  00000-0  16131-3 0  9990
2 07046 102.5129 278.8446 0057248 215.2995 171.1987 12.29405402364935

Verfolge DELTA 1 DEB in Echtzeit mit AllMySat

Download on the App Store